Find WorldView Legion 4

NORAD ID: 60453 Int'l Des: 2024-146 Owner: MAXARI Country: US operational
LEOCIRCULAR

現在のビュー

3D地球を読み込み中...

About WorldView Legion 4

WorldView Legion 4 (NORAD 60453) is a satellite launched Aug 15, 2024 by MAXARI of US. It operates in LEO, CIRCULAR orbit with a mass of 700.00 kg.

次回通過

Passes for default location (London). Set your location on the main map for personalized predictions.

高度履歴

Loading altitude history...

軌道要素

1 60453U 24146B 26194.88630610 .00002266 00000-0 13065-3 0 9993
2 60453 45.0030 339.2713 0008928 105.5212 254.6653 15.15675992104920
Epoch: Jul 13, 2026 • Age: 19 hours

現在のステータス

高度 536.6 km
遠地点 / 近地点 N/A
速度 7.59 km/s
衛星直下点 -38.32°S, 110.97°E
打ち上げ日 Aug 15, 2024
運用期間 1.9 years
タイプ earth observation

技術仕様

分類 Payload
質量 700.00 kg
乾燥質量 630.00 kg
総質量 700.00 kg
長さ 3.00 m
直径 2.00 m
スパン 5.00 m
形状 Box + panel
製造者 MAXSI
バスタイプ Legion
フェーズステータス In Orbit
所有者/国 MAXARI/US

Most Searched